Weather in Suvorovskoye

Russia / Republic of Crimea     45°15′09″N   33°22′25″E
temp.,
°C
wind,
m/s
gust,
m/s
humid.,
%
clouds,
%
prec.,
mm/h
press.,
hPa
HPBL,
m
7 march, sun
sun700:000n59610 0.0 1028422
03:00−1n35630 0.0 1029231
06:00−2n23580 0.0 1029154
09:00+1nw13430 0.0 1028468
12:00+4wsw45400 0.0 10271530
15:00+4w67440 0.0 10251510
18:00+3w575028 0.0 10231396
21:00+2wsw585629 0.0 1023454
8 march, mon
mon800:00+3sw69590 0.0 1022451
03:00+3wsw69650 0.0 1020450
06:00+3wsw696854 0.0 1018472
09:00+5sw796552 0.0 10181259
12:00+6sw9106594 0.3 10171297
15:00+7sw9106895 0.6 10161309
18:00+6w696698 0.5 10151210
21:00+4w467186 0.6 1016318
9 march, tue
tue900:00+3nw457772 0.0 1016202
03:00+2nnw347636 0.0 1017100
06:00+1nne33814 0.0 101784
09:00+3nne347229 0.0 1019296
12:00+4nnw336298 0.0 1020935
15:00+6wnw454693 0.0 10201199
18:00+4nw44434 0.0 1020754
21:00+1nnw345924 0.0 1022174
10 march, wed
wed1000:00+1n466333 0.0 1022216
03:000nne586567 0.0 1022268
06:000ne4664100 0.0 1021209
09:00+1ne5761100 0.0 1022340
12:00+4ene5653100 0.0 1021996
15:00+5ene6653100 0.0 10201088
18:00+4ene7759100 0.0 1020898
21:00+1ne6967100 0.0 1021453
11 march, thu
thu1100:000ne597498 0.0 1022411
03:00−1ne586551 0.0 1023342
06:00−1ne58660 0.0 1024333
09:00+1ene57550 0.0 1026780
12:00+3ne44390 0.0 10271611
15:00+5nne123325 0.0 10271839
18:00+4w124395 0.0 10271004
21:00+1e475372 0.0 1028378